Location: Glens Falls
(43.3090°N, 73.6440°W)
Time: 17:39:42
(UTC-04:00)

Daily predictions for brighter satellites

Satellite Brightness Start Highest point End
(mag) Time Altitude Azimuth Time Altitude Azimuth Time Altitude Azimuth
CENTAUR R/B 2.7 20:05:24 10° SW 20:11:27 85° NW 20:18:24 10° NE
Gblst 52 Del rocket 4.5 20:06:20 10° WNW 20:12:18 70° SW 20:17:47 10° SE
ERBS 3.4 20:12:32 10° NNW 20:15:44 34° NE 20:18:56 10° ESE
Cosmos 1455 2.4 20:13:52 10° S 20:17:32 50° E 20:21:13 10° NNE
Cosmos 1869 4.1 20:17:33 10° SSE 20:21:00 30° E 20:24:27 10° NNE
Cosmos 1697 Rocket 3.1 20:16:41 10° SSW 20:22:19 72° WNW 20:27:59 10° NNE
SeaSat 1 4.3 20:21:38 10° E 20:24:43 17° NE 20:27:47 10° N
ATLAS CENTAUR R/B 3.0 20:23:21 10° WNW 20:25:36 30° SW 20:30:08 10° SSE
Cosmos 1400 Rocket 3.1 20:22:48 10° NNW 20:26:41 70° W 20:30:34 10° S
Cosmos 2297 Rocket 4.2 20:24:13 10° NW 20:29:00 29° WSW 20:33:47 10° SSW
Nadezhda 4 Rocket 4.2 20:23:01 10° N 20:29:18 83° W 20:35:35 10° S
OTV 4 2.9 20:28:30 10° SW 20:29:42 12° SSW 20:30:53 10° S
ALOS 4.0 20:28:28 10° SSW 20:32:44 35° W 20:37:02 10° NNW
DELTA 2 R/B (1) 4.4 20:27:43 10° W 20:32:55 39° SSW 20:37:59 11° SE
Cosmos 1892 3.1 20:29:33 10° NNW 20:33:18 64° W 20:37:03 10° S
Cosmos 1634 Rocket 4.1 20:31:12 10° S 20:37:20 60° E 20:43:34 10° NNE
Cosmos 1503 Rocket 4.5 20:32:42 10° N 20:37:45 44° ENE 20:42:25 12° SE
Cosmos 1092 Rocket 4.0 20:31:38 10° N 20:38:00 83° E 20:44:21 10° S
Cosmos 2263 Rocket 3.2 20:33:34 10° N 20:38:25 30° NE 20:42:39 13° ESE
Meteor 2-3 Rocket 4.5 20:32:56 10° NNW 20:38:31 57° W 20:44:07 10° S
Intercosmos 25 Rocket 3.9 20:36:05 10° SSE 20:38:52 28° E 20:42:08 10° NNE
Cosmos 1315 Rocket 2.8 20:34:55 10° N 20:39:02 84° E 20:43:04 10° S
Cosmos 1354 Rocket 4.4 20:35:57 10° N 20:41:05 48° ENE 20:45:43 12° SE
H-2A R/B 4.4 20:37:55 10° SSW 20:41:33 37° W 20:45:11 10° NNW
Cosmos 2322 Rocket 2.7 20:37:54 10° S 20:43:00 37° ESE 20:48:07 10° NE
USA 186 1.8 20:40:51 10° S 20:43:28 61° W 20:46:19 10° NNW
H-2A R/B 4.0 20:44:24 10° ENE 20:45:56 11° ENE 20:47:28 10° NE
Cosmos 1707 Rocket 3.6 20:43:16 10° S 20:47:43 86° W 20:52:11 10° N
YAOGAN 6 3.6 20:45:47 15° ESE 20:48:06 29° ENE 20:51:18 10° N
Abrixas rocket 2.1 20:45:27 10° WSW 20:48:44 82° SSE 20:52:02 10° ENE
Spot 2 Rocket 4.4 20:43:50 10° S 20:48:47 51° W 20:53:45 10° NNW
USA 267 4.2 20:43:24 10° NE 20:49:39 50° NNW 20:55:54 10° W
Meteor 2-20 Rocket 4.5 20:47:19 10° N 20:53:25 68° E 20:59:30 10° SSE
Cosmos 1733 Rocket 3.6 20:49:57 10° N 20:54:11 41° ENE 20:57:20 16° SE
Cosmos 2360 Rocket 3.6 20:52:40 16° ESE 20:54:26 18° E 20:58:06 10° ENE
Cosmos 1980 Rocket 2.7 20:49:11 10° SW 20:54:48 67° WNW 21:00:31 10° NNE
Helios 1B rocket 2.4 20:53:57 10° NNE 20:58:05 87° ESE 21:02:10 10° SSW
Meteor 1-29 2.8 20:56:34 10° NNE 21:00:04 75° ESE 21:03:31 10° S
Lacrosse 4 Rocket 1.7 20:56:14 10° NNW 21:00:30 57° ENE 21:03:18 21° SE
Cosmos 1862 Rocket 4.1 20:56:58 12° SSE 21:00:43 38° E 21:04:52 10° NNE
Cosmos 1825 2.1 21:01:44 10° N 21:05:32 74° E 21:08:24 17° SSE
Cosmos 1862 3.6 21:02:05 10° N 21:06:00 50° E 21:08:23 22° SE
Envisat 3.1 21:03:30 10° S 21:08:35 77° WSW 21:13:41 10° NNW
SL-16 R/B 2.2 21:04:16 10° S 21:09:48 60° ESE 21:15:24 10° NNE
Cosmos 1939 Rocket 3.0 21:09:41 12° S 21:13:23 77° WSW 21:17:25 10° NNW
Cosmos 2242 Rocket 3.6 21:09:31 10° S 21:14:03 87° ESE 21:18:35 10° N
Milstar 3 4.1 21:08:27 10° WSW 21:14:17 24° S 21:17:22 17° SSE
SJ-11-01 4.5 21:10:59 10° S 21:15:38 73° WSW 21:20:20 10° NNW
SPOT 5 3.7 21:15:36 24° ESE 21:17:42 34° ENE 21:21:55 10° N
CZ-4B DEB 3.7 21:15:52 13° S 21:18:22 43° W 21:21:19 10° NNW
Cosmos 2279 Rocket 3.9 21:13:36 10° S 21:19:48 75° E 21:26:03 10° N
ATLAS 5 CENTAUR R/B 3.0 21:15:06 10° NNW 21:20:42 43° NE 21:24:21 22° ESE
MetOp-B 4.4 21:21:52 25° SE 21:24:44 52° ENE 21:29:56 10° N
USA 234 3.6 21:20:01 18° SSE 21:24:52 58° SW 21:31:20 10° NW
OAO 3 Rocket 4.1 21:24:00 10° WSW 21:28:19 31° S 21:29:18 28° SSE
Resurs 01 Rocket 4.4 21:27:15 10° SW 21:29:59 16° W 21:32:46 10° NW
SPOT 1/Viking Rocket 4.4 21:30:50 27° ESE 21:32:39 35° ENE 21:37:22 10° N
ARGOS 3.5 21:30:20 29° SE 21:32:40 47° ENE 21:37:47 10° N
Atlas Centaur 2 3.9 21:27:14 10° SSW 21:33:06 24° SSE 21:34:14 24° SSE
Cosmos 1428 Rocket 4.4 21:30:25 10° N 21:36:33 86° W 21:41:11 18° S
MOS 1-B Rocket 4.2 21:35:42 29° SE 21:38:29 51° ENE 21:43:55 10° N
Cosmos 2180 Rocket 4.5 21:33:20 10° S 21:39:44 87° E 21:46:06 10° N
Cosmos 1844 Rocket 4.1 21:37:46 10° N 21:42:07 23° NE 21:44:04 19° E
ERS-1 Rocket 3.1 21:42:11 24° S 21:45:14 72° WSW 21:50:16 10° NNW
Cosmos 1408 4.4 21:44:12 10° NNW 21:47:28 30° W 21:50:06 14° SSW
ERBS 3.9 21:49:24 10° WNW 21:52:20 26° SW 21:52:42 26° SW
Sich 1 Rocket 3.5 21:48:24 10° N 21:52:53 77° E 21:53:57 51° SSE
Meteor 1-14 Rocket 4.2 21:52:13 10° N 21:57:49 66° ENE 21:59:37 43° SE
Cosmos 2219 Rocket 4.3 22:03:40 12° ENE 22:03:40 12° ENE 22:04:13 10° ENE
SeaSat 1 2.4 22:00:12 48° SSE 22:01:38 87° WSW 22:06:36 10° NNW
Cosmos 1992 Rocket 4.5 21:58:35 10° SSW 22:03:45 61° WNW 22:08:58 10° NNE
H-2A R/B 3.0 22:07:13 34° ENE 22:07:13 34° ENE 22:10:52 10° N
USA 229 DEB 3.8 22:04:46 34° SSE 22:07:21 49° ESE 22:13:58 10° NE
USA 229 3.8 22:05:02 35° SSE 22:07:27 49° ESE 22:14:03 10° NE
Cosmos 1908 Rocket 3.7 22:05:56 10° NNW 22:10:16 69° W 22:11:04 54° SSW
MetOp-A 4.5 22:08:21 33° S 22:10:41 61° W 22:16:00 10° NNW
USA 245 4.2 22:08:34 39° S 22:10:55 82° WSW 22:16:14 10° NNW
Landsat 7 4.1 22:11:17 49° E 22:11:31 50° ENE 22:16:08 10° N
Cosmos 2237 4.5 22:13:32 47° ESE 22:13:32 47° ESE 22:18:49 10° NE
Meteor 1-25 Rocket 4.1 22:11:49 10° N 22:17:26 70° ENE 22:18:23 58° SE
Cosmos 1867 3.4 22:16:21 10° NW 22:21:51 89° ENE 22:22:40 66° SE
COSMOS 2428 3.4 22:23:05 38° ENE 22:23:05 38° ENE 22:27:20 10° NE
Cosmos 2263 Rocket 3.0 22:17:13 10° NW 22:22:28 44° WSW 22:24:22 32° SSW
Cosmos 1782 Rocket 3.5 22:19:48 10° N 22:24:09 84° W 22:24:09 84° W
Okean 2 Rocket 3.1 22:19:57 10° N 22:24:13 68° NE 22:24:13 68° NE
H-2A R/B 1.8 22:24:03 71° SE 22:24:35 83° ENE 22:29:35 10° NNW
Abrixas rocket 3.9 22:22:42 10° WNW 22:25:18 33° NNW 22:25:18 33° NNW
Terra 2.2 22:26:53 49° ENE 22:26:53 49° ENE 22:31:16 10° N
Cosmos 2322 Rocket 3.7 22:21:57 10° WSW 22:27:02 35° NW 22:32:10 10° N
IGS 5A 4.4 22:35:11 41° NNE 22:35:11 41° NNE 22:38:15 10° N
Cosmos 2360 Rocket 2.4 22:34:16 23° SW 22:37:48 68° WNW 22:43:29 10° NNE
SL-08 RB Rocket 4.2 22:37:52 50° WSW 22:38:14 51° W 22:42:43 10° NNW
Lacrosse 4 Rocket 3.8 22:36:14 10° WNW 22:38:45 15° WSW 22:39:39 14° WSW
Meteor 1-20 Rocket 4.1 22:34:03 10° N 22:39:37 86° W 22:40:13 72° S
Cosmos 1844 4.1 22:36:03 10° NNW 22:41:33 47° ENE 22:41:50 46° ENE
Cosmos 2322 3.9 22:40:41 34° SW 22:43:12 72° WNW 22:48:56 10° NNE
Cosmos 968 Rocket 4.2 22:40:50 10° NNW 22:45:46 44° WSW 22:46:23 42° WSW
Geosat 4.0 22:43:22 10° NNE 22:47:59 74° NE 22:47:59 74° NE
Meteor 2-6 Rocket 4.3 22:49:28 68° E 22:49:28 68° E 22:55:20 10° NNE
ASTEX 1 3.6 22:50:52 65° NNE 22:50:52 65° NNE 22:55:19 10° N
deb Chang Zheng 4 4.5 22:47:31 10° NNE 22:50:34 43° NNE 22:50:34 43° NNE
SL-16 R/B 4.4 22:49:51 10° WSW 22:54:21 24° NW 22:58:52 10° N
Okean 1-7 3.9 22:55:18 48° WNW 22:55:18 48° WNW 22:59:25 10° N
SPOT 5 4.4 22:54:50 26° WSW 22:55:46 28° W 22:59:51 10° NW
CZ-4C R/B 3.7 22:50:47 10° NNW 22:57:18 41° NE 22:59:45 32° E
Cosmos 2151 Rocket 4.4 22:53:14 10° N 22:56:27 47° N 22:56:27 47° N
Cosmos 1782 4.2 22:59:16 36° N 22:59:16 36° N 23:01:46 10° N
Cosmos 2333 Rocket 3.5 23:04:54 29° ENE 23:04:54 29° ENE 23:08:03 10° NE
CZ-4B R/B 4.3 22:58:52 10° NNE 23:01:53 38° NE 23:01:53 38° NE
Cosmos 2333 4.3 23:05:38 71° NE 23:05:38 71° NE 23:10:47 10° NNE
ATLAS 5 CENTAUR R/B 3.1 22:59:49 10° NW 23:05:30 42° WSW 23:05:54 42° SW
Cosmos 2237 Rocket 3.8 23:14:49 24° ENE 23:14:49 24° ENE 23:17:23 10° NE
Cosmos 2278 Rocket 2.8 23:09:11 10° NNW 23:14:18 47° NE 23:14:18 47° NE
Meteor 1-27 Rocket 4.0 23:19:30 62° NNE 23:19:30 62° NNE 23:24:12 10° NNE
Cosmos 1553 Rocket 3.9 23:23:21 87° NNW 23:23:21 87° NNW 23:29:32 10° N
Cosmos 1844 Rocket 3.1 23:20:57 10° NNW 23:25:44 56° WNW 23:25:44 56° WNW
SL-08 R/B 4.5 23:23:13 10° N 23:29:11 75° WNW 23:29:11 75° WNW
Cosmos 1898 Rocket 4.4 23:32:01 10° NNW 23:35:51 44° NNE 23:35:51 44° NNE
CZ-2C R/B 4.4 23:33:22 10° NE 23:35:56 23° ENE 23:35:56 23° ENE
Meteor 1-11 Rocket 4.1 23:33:25 10° NNW 23:38:03 58° NW 23:38:03 58° NW
H-2A R/B 4.3 23:44:20 19° WNW 23:44:20 19° WNW 23:46:23 10° NW
NOSS 0 Rocket 4.3 23:45:06 54° NE 23:45:06 54° NE 23:49:48 10° NNE
Cosmos 2219 Rocket 2.7 23:45:20 56° N 23:45:20 56° N 23:49:51 10° NNE
S3M 4.3 23:51:34 57° WNW 23:51:34 57° WNW 23:57:36 10° N
